OpenBCM V1.08-5-g2f4a (Linux)

Packet Radio Mailbox

IZ3LSV

[San Dona' di P. JN]

 Login: GUEST





  
I0OJJ  > KEPS     19.11.25 01:26l 308 Lines 14709 Bytes #104 (0) @ AMSAT
BID : ORB25323.1
Read: GUEST
Subj: 2Line Orbital Elements 25323.AMSAT
Path: IZ3LSV<IK6IHL<IK7NXU<HB9ON<DK0WUE<PI8ZTM<CX2SA<EA2RCF<I0OJJ
Sent: 251119/0021z @:I0OJJ.ITA.EU [Rome] obcm1.08-11-2-gbfe9
From: I0OJJ @ I0OJJ.ITA.EU (Gustavo)
To:   KEPS @ AMSAT
X-Info: This message was generated automatically


QST de W1STR

AMSAT Orbital Elements for Amateur Satellites in TLE Format
From Orbital Analysis Office
New England Sci-Tech STEM Education Center
Natick MA November 19, 2025
To all radio amateurs


These element sets describe the orbits of various satellites 
in use by the amateur radio community. For details see:
www.amsat.org/keplerian-elements-formats/

A daily update of element sets is available at:
www.amsat.org/tle/daily-bulletin.txt
or without bulletin text:
www.amsat.org/tle/dailytle.txt


AO-07
1 07530U 74089B   25322.30586787 -.00000028  00000-0  11681-3 0  9992
2 07530 101.9974 328.3159 0012220 172.7038 198.6693 12.53693504334093
UO-11
1 14781U 84021B   25322.48438274  .00001840  00000-0  19631-3 0  9996
2 14781  97.7773 285.8967 0008257 150.3901 209.7785 14.90026804225741
AO-27
1 22825U 93061C   25322.66393721  .00000189  00000-0  89080-4 0  9996
2 22825  98.7181  24.8704 0008379   5.6229 354.5047 14.30864275676895
FO-29
1 24278U 96046B   25322.59602487  .00000016  00000-0  55754-4 0  9990
2 24278  98.5479 194.9687 0348881 282.7618  73.4751 13.53260818444687
GO-32
1 25397U 98043D   25322.47197492  .00000154  00000-0  86880-4 0  9991
2 25397  98.9899 305.1265 0002306  96.8139 263.3301 14.24367531421336
ISS
1 25544U 98067A   25322.35181354  .00014877  00000-0  27011-3 0  9995
2 25544  51.6332 263.1865 0004177  83.8870 276.2595 15.49788164539079
NO-44
1 26931U 01043C   25322.70752322  .00000310  00000-0  14672-3 0  9998
2 26931  67.0514  68.6250 0007286 271.2655  88.7612 14.31835916260319
SO-50
1 27607U 02058C   25322.72029586  .00002182  00000-0  27938-3 0  9995
2 27607  64.5548  59.8270 0070826 301.0456  58.3709 14.82258660233258
CO-55
1 27844U 03031E   25322.49206993  .00000535  00000-0  25137-3 0  9992
2 27844  98.6769 328.7074 0010684  79.1097 281.1284 14.24150405161689
CO-57
1 27848U 03031J   25322.30625911  .00000471  00000-0  22660-3 0  9998
2 27848  98.6800 328.4057 0010610  95.5021 264.7368 14.23462732161379
RS-22
1 27939U 03042A   25322.87981795  .00002042  00000-0  32697-3 0  9995
2 27939  98.3363 136.4473 0010710 210.8351 285.7231 14.72873882184585
CO-58
1 28895U 05043F   25322.85136469  .00002452  00000-0  40043-3 0  9997
2 28895  98.2711 109.5297 0014894 149.4296 210.7781 14.71764302 70802
CO-65
1 32785U 08021C   25322.86528196  .00007822  00000-0  53108-3 0  9994
2 32785  97.8059 295.6265 0010638  33.3412 326.8483 15.06632031953495
CO-66
1 32791U 08021J   25321.96397173  .00019084  00000-0  78665-3 0  9998
2 32791  97.7426 306.2825 0003450  16.7959 343.3391 15.24125711955020
RS-30
1 32953U 08025A   25322.88893799  .00000041  00000-0  22582-3 0  9999
2 32953  82.4994 126.2581 0019747  52.4047 307.8823 12.43171061793562
SRMSAT
1 37841U 11058D   25322.83636810  .00000492  00000-0  12343-3 0  9998
2 37841  19.9717 252.6257 0011809  50.6030 337.8928 14.11500222728062
ZACUBE-1
1 39417U 13066B   25322.42548836  .00007402  00000-0  60957-3 0  9997
2 39417  97.8002 278.9434 0040733 228.4650 131.3076 14.98730153649138
Delfi-N3xt
1 39428U 13066N   25322.72464638  .00008818  00000-0  83744-3 0  9990
2 39428  97.8330 238.7804 0079424 184.0754 175.9828 14.91348573643216
GOMX-1
1 39430U 13066Q   25322.84933553  .00002821  00000-0  43491-3 0  9996
2 39430  97.6614 171.4688 0131652  33.1869 327.7509 14.68433222639036
LO-74
1 39440U 13066AA  25322.79330191  .00007347  00000-0  71230-3 0  9990
2 39440  97.8671 266.5067 0060502   6.1631 354.0318 14.91599448645601
AO-73
1 39444U 13066AE  25322.86328250  .00009654  00000-0  66561-3 0  9999
2 39444  97.8015 285.8638 0038550 195.6855 164.3180 15.05427837647974
DTUSAT-2
1 40030U 14033W   25322.90276449  .00010349  00000-0  61973-3 0  9999
2 40030  98.0729 303.0405 0006916 223.6104 136.4578 15.11200159620882
EO-80
1 40032U 14033Y   25322.64969582  .00009091  00000-0  54398-3 0  9994
2 40032  98.0611 302.2018 0008293 158.1332 202.0252 15.11257484620826
LILACSAT-2
1 40908U 15049K   25322.82502214  .00017012  00000-0  37747-3 0  9990
2 40908  97.4940 347.4865 0006488 304.5119  55.5515 15.43776025563215
IO-86
1 40931U 15052B   25151.18580175  .00001241  00000-0  78118-4 0  9996
2 40931   6.0006  24.0987 0012733 338.8432  21.1169 14.78805930523159
Horyu-4
1 41340U 16012D   25322.65135374  .00047018  00000-0  86554-3 0  9991
2 41340  30.9934 115.0079 0005572 352.1264   7.9297 15.47891462537812
Lapan A3
1 41603U 16040E   25322.84515491  .00005198  00000-0  17405-3 0  9999
2 41603  97.1422 321.2765 0012344  55.6740 304.5669 15.31292389522609
CAS-2T
1 41847U 16066G   25322.65023669  .00001480  00000-0  21635-3 0  9997
2 41847  98.4068  35.6257 0344938  48.0918 314.9148 14.44055801474401
TechnoSat
1 42829U 17042E   25322.43272316  .00004678  00000-0  34898-3 0  9991
2 42829  97.4034 123.6964 0020438  92.6564 267.7002 15.03153068455026
AO-91
1 43017U 17073E   25322.16754110  .00013783  00000-0  65899-3 0  9994
2 43017  97.4971 188.9314 0162568 335.4470  23.9077 15.08115229433532
S-Net D
1 43186U 18014G   25322.69857988  .00007123  00000-0  39616-3 0  9991
2 43186  97.5484 223.9879 0009949  36.3155 323.8750 15.13934881426884
S-Net B
1 43187U 18014H   25322.44187272  .00006952  00000-0  38703-3 0  9992
2 43187  97.5493 223.7127 0010550  32.6352 327.5530 15.13907701426841
S-Net A
1 43188U 18014J   25322.69838772  .00007107  00000-0  39518-3 0  9996
2 43188  97.5499 224.1398 0010407  32.3406 327.8461 15.13940723426882
S-Net C
1 43189U 18014K   25322.70914404  .00006826  00000-0  37996-3 0  9991
2 43189  97.5517 224.1917 0011659  24.6756 335.5031 15.13906263425433
Ten-Koh
1 43677U 18084G   25322.45738573  .00004693  00000-0  36677-3 0  9998
2 43677  98.0688 141.1052 0009199  92.8164 267.4112 15.01582755384524
PO-101
1 43678U 18084H   25322.82699436  .00003080  00000-0  25758-3 0  9991
2 43678  98.1041 145.3302 0007445 104.7634 255.4413 14.99273312384680
QO-100
1 43700U 18090A   25322.59654461  .00000000  00000-0  00000+0 0  9995
2 43700   0.0165 312.0525 0002386 327.3181  19.0437  1.00271306 25562
MinXSS-2
1 43758U 18099A   25322.67962860  .00025867  00000-0  81297-3 0  9990
2 43758  97.4839  29.7456 0009071 305.9766  54.0634 15.32929673381736
AO-95
1 43770U 18099N   25322.12982403  .00013431  00000-0  60571-3 0  9995
2 43770  97.4720  18.6061 0010098  18.0974 342.0619 15.21098538381077
SNUSat 2
1 43782U 18099AA  25322.13631535  .00009855  00000-0  49179-3 0  9992
2 43782  97.4401  13.9718 0010128 319.8730  40.1755 15.17666034380971
SnugLite
1 43784U 18099AC  25322.58349933  .00012970  00000-0  57917-3 0  9992
2 43784  97.4209  14.3760 0002234 336.8169  23.2966 15.21486716381233
ITASat 1
1 43786U 18099AE  25322.60294392  .00008432  00000-0  44668-3 0  9992
2 43786  97.4367  13.4231 0013801  12.9950 347.1635 15.15568857380976
EAGLET 1
1 43790U 18099AJ  25322.59858284  .00005366  00000-0  32649-3 0  9990
2 43790  97.4568  12.7587 0011489   1.6080 358.5185 15.10787603380512
ESEO
1 43792U 18099AL  25322.85425797  .00002308  00000-0  17402-3 0  9993
2 43792  97.4289   4.0112 0011317 338.4980  21.5769 15.03359667380198
JO-97
1 43803U 18099AX  25322.62379917  .00016480  00000-0  64635-3 0  9999
2 43803  97.4463  20.5342 0005431 303.1667  56.9050 15.25813048381439
Suomi 100
1 43804U 18099AY  25322.60635590  .00013637  00000-0  59068-3 0  9995
2 43804  97.4527  19.2672 0010034 306.7775  53.2540 15.22473716381318
ISAT
1 43879U 18111D   25322.70459978  .00039648  00000-0  10066-2 0  9991
2 43879  97.5898 241.4880 0007325  11.4237 348.7173 15.39527149378547
UWE-4
1 43880U 18111E   25322.75223122  .00025955  00000-0  81689-3 0  9994
2 43880  97.5844 238.6437 0011059  13.9848 346.1697 15.32864406378401
Sparrow
1 43881U 18111F   25322.72243093  .00039700  00000-0  94287-3 0  9992
2 43881  97.6081 245.1208 0007835  45.5127 314.6759 15.41551865378662
Prox-1
1 44339U 19036A   25322.71469193  .00015276  00000-0  17450-2 0  9996
2 44339  23.9963  73.7726 0007565 120.4334 239.6912 14.84320015342097
Taurus 1
1 44530U 19059C   25322.86097141  .00009573  00000-0  16542-2 0  9994
2 44530  98.6219 110.4103 0008912 247.9453 112.0804 14.68606293327730
Duchifat 3
1 44854U 19089C   25322.51043828  .00376473  00000-0  16159-2 0  9991
2 44854  36.9313  28.7253 0008434 107.3016 252.8676 15.83085679328276
TO-108
1 44881U 19093C   25322.86456995  .00001617  00000-0  19066-3 0  9993
2 44881  97.7786  35.0280 0014922  61.7069 298.5650 14.86027150320178
FloripaSat 1
1 44885U 19093G   25322.84536194  .00008440  00000-0  66766-3 0  9995
2 44885  97.8071  50.9311 0012108  48.7138 311.5126 15.00825790321063
RS-44
1 44909U 19096E   25322.85620495  .00000005  00000-0 -16803-4 0  9992
2 44909  82.5186 119.4803 0216513 276.1595  81.4880 12.79745503275441
SALSAT
1 46495U 20068K   25322.86038229  .00010416  00000-0  41041-3 0  9991
2 46495  97.8763 308.8580 0009554 328.6848  31.3818 15.25762916283241
CSS (TIANHE-1)
1 48274U 21035A   25322.68845853  .00023288  00000-0  29082-3 0  9994
2 48274  41.4655 162.6353 0007135 190.7912 169.2774 15.59276595260270
TUBIN
1 48900U 21059X   25322.84266326  .00261478  27459-4  84059-3 0  9997
2 48900  97.6652 147.8366 0002021 330.8775  29.2385 15.90943806245501
CUTE
1 49263U 21088D   25322.68395116  .00032006  00000-0  44805-3 0  9991
2 49263  97.4379  44.4902 0005471  10.4620 349.6747 15.56732428229554
TeikyoSat 4
1 49396U 21102B   25322.85585068  .00002960  00000-0  19354-3 0  9998
2 49396  97.3928 355.3516 0010922 300.6805  59.3347 15.08487473221008
Z-Sat
1 49399U 21102E   25322.82147425  .00005855  00000-0  30628-3 0  9992
2 49399  97.3616 359.4862 0015661 259.9091 100.0375 15.16119644221547
